FENGYUN 1C DEB

Satellite information

Favourite Embed

Satellite Type and Status

DEBRISIN ORBIT

Key statistics

Satellite FENGYUN 1C DEB at a glance.

Uptime

9493

Days in orbit

Revolutions

≈ 14.2

Per day

Orbit

SSO

Sun Synchronous Orbit

Inclination

98.6

Latest

Satellite identification and parameters

Extended collection of information and parameters for FENGYUN 1C DEB.

Object identification

Identified? True

Debris? True

Object name: FENGYUN 1C DEB

International designator: 1999-025DKG

Object number (NORAD): 35104

Object ID (CCSDS): 35104

Country: PEOPLES REPUBLIC OF CHINA (PRC)

Current information (Y/N): Y

RCS size: SMALL

Orbital parameters

Period: 101.417 minutes

Inclination: 98.5988 deg

SMA: 7203.877 km

Apoapsis: 848.889 km

Periapsis: 802.594 km

RAAN: 138.7818 deg

Eccentricy: 0.0032132

Argument of periapsis: 62.0849 deg

Mean anomaly: 57.1828 deg

Mean motion: 14.19885563 rev/day

Mean motion (dot): 0.00001226 rev/day2

B* drag term: 0.00059454 1/REarth

Two-line elements (TLE)

Creation date: May 6, 2025, 3:54 a.m.

Reference frame: TEME

Reference center: EARTH

Epoch: May 5, 2025, 9:03 p.m. UTC

TLE line 0: 0 FENGYUN 1C DEB

TLE line 1: 1 35104U 99025DKG 25125.87725904 .00001226 00000-0 59454-3 0 9996

TLE line 2: 2 35104 98.5988 138.7818 0032132 62.0849 57.1828 14.19885563866324

Live tracking on map

Real-time ground track for satellite FENGYUN 1C DEB.

In-orbit conjunctions

A list of the most updated potential collisions computed for object FENGYUN 1C DEB.

Target Orbit TCA Probability of collision Miss distance Type
COSMOS 886 DEB MEO 2025-03-12 16:32:23 0.0001381111 87.0 (m) DEBRIS
CZ-4 DEB SSO 2024-11-15 16:36:56 0.0001698731 840.0 (m) DEBRIS

Associated space launch

Chinese polar orbiting meteorological satellite

FENGYUN 1C DEB was lifted into orbit during the mission ‘Long March 4B | Feng Yun 1C’, on board a Long March 4B space rocket.

The launch took place on May 10, 1999, 1:33 a.m. from Launch Complex 7.

For more information about the launch, click the button.

Launch to space Long March 4B | Feng Yun 1C
Long March 4B | Feng Yun 1C

Agency: N/A

Status: Launch Successful

Launch date: May 10, 1999, 1:33 a.m. UTC

Rocket: Long March 4B

Launch pad: Launch Complex 7

Location: Taiyuan Satellite Launch Center, People's Republic of China

...

Latest news about this satellite

There are no fresh news available about this satellite. Check back as we update our databases every day.


Newsletter sign-up

Weekly statistics, charts and insights to help you stay on top of the space industry.